Location: Campillo
(40.8621°N, 4.2488°W)
Time: 11:06:10
(UTC+00:00)

USA 305 - Pass Details

Date: 11 May 2021
Orbit: 567 x 573 km, 54.0° (Epoch: 07 May)

Event Time Altitude Azimuth Distance (km) Brightness Sun altitude
Rises 22:00:56 0° 312° (NW) 2,773 7.7 -23.5°
Reaches altitude 10° 22:03:13 10° 317° (NW) 1,874 6.6 -23.7°
Maximum altitude 22:07:25 57° 36° (NE) 677 3.2 -24.2°
Enters shadow 22:07:27 57° 38° (NE) 677 3.2 -24.2°
